星链-30759 (STARLINK-30759 )

导读 | 星芒AI

STARLINK-30759 是 SpaceX 星链计划中的一颗低轨通信卫星,属于第 6 批星链卫星(Group 6)。该卫星于 2023 年 10 月发射,运行在约 550 公里的轨道高度,旨在为全球用户提供高速互联网服务。作为星链星座的一部分,它与其他数千颗卫星协同工作,提升网络覆盖与连接稳定性。该卫星采用可再生太阳能供电,并具备自动避碰功能,以确保太空安全。

基本信息
目录编号:
58122
目录名称:
STARLINK-30759
国际标识:
2023-162E
轨道中心:
EARTH
卫星名称:
星链-30759
卫星全名:
星链-30759 (STARLINK-30759 )
卫星状态:
在轨 (已飞行740 天)
发射日期:
2023-10-22 UTC
国别 :
美国 (US)
星等 :
--
轨道信息
数据来源 国际轨道数据 AOE轨道数据
星历时间 2025-10-30T21:10:54+0800
18小时前
查看轨道信息
2025-10-30T10:00:00+0800
1天前
查看轨道信息
半长轴 6937.309km 6937.219km
偏心率 0.0001138 0.0001492
轨道倾角 43.004° 43.001°
近地点辐角 278.521° 287.992°
升交点赤经 120.227° 122.760°
平近点角 81.551° 69.120°
近地点 558.384km 558.048km
远地点 559.964km 560.12km
周期 95.840分钟 95.838分钟
每日圈数 15.025062 15.025352
详细信息
固有亮度:
5
最大亮度:
0.3
卫星平台:
Starlink v2.0 mini
覆盖范围:
全球
运营商:
太空探索技术公司
运营商所在国:
美国
制造商(研发单位):
太空探索技术公司
制造商所在国:
美国
使用方式:
暂无
卫星简介
星链(Starlink)计划是由太空探索技术公司(SpaceX)提出的一个巨型低轨卫星互联网星座项目,计划在2019年至2024年间在太空搭建由约1.2万颗卫星组成的“星链”网络,其中1584颗将部署在地球上空550千米处的近地轨道,并从2020年开始工作。该卫星仍在工作。
2D轨道图
3D轨道图
轨道高度分析图
轨道倾角分析图
轨道综合分析图
查看轨道综合分析图